KN6RO Weather Reports


time (UTC)temp
C
wind
direction
speed
KPH
gust
KPH
rain 1hr
cm
rain 24hr
cm
rain mn
cm
humidity
%
barometer
mb
20260506014007 18 303 0.0 1.6 0.00 0.00 0.00 51 1015.2
20260506013511 18 303 0.0 3.2 0.00 0.00 0.00 51 1015.1
20260506013023 18 302 0.0 3.2 0.00 0.00 0.00 52 1015.0
20260506012508 18 300 0.0 3.2 0.00 0.00 0.00 52 1015.0
20260506012014 18 334 0.0 1.6 0.00 0.00 0.00 52 1014.7
20260506011530 18 327 0.0 1.6 0.00 0.00 0.00 52 1014.6
20260506011012 18 327 0.0 1.6 0.00 0.00 0.00 52 1014.8
20260506010511 18 351 0.0 1.6 0.00 0.00 0.00 52 1014.7
20260506010017 18 8 0.0 1.6 0.00 0.00 0.00 51 1014.7
20260506005512 18 8 0.0 1.6 0.00 0.00 0.00 51 1014.7
20260506005007 19 340 1.6 1.6 0.00 0.00 0.00 51 1014.6
20260506004524 19 345 0.0 1.6 0.00 0.00 0.00 51 1014.7
20260506004009 19 303 0.0 1.6 0.00 0.00 0.00 51 1014.7
20260506003509 19 303 0.0 3.2 0.00 0.00 0.00 51 1014.7
20260506003022 19 310 0.0 3.2 0.00 0.00 0.00 51 1014.8
20260506002510 19 16 0.0 3.2 0.00 0.00 0.00 52 1014.7
20260506002010 19 295 0.0 1.6 0.00 0.00 0.00 52 1014.7
20260506001524 19 86 0.0 1.6 0.00 0.00 0.00 51 1014.6
20260506001011 19 86 0.0 1.6 0.00 0.00 0.00 52 1014.6
20260506000507 20 86 0.0 0.0 0.00 0.00 0.00 51 1014.6
20260506000042 20 86 0.0 0.0 0.00 0.00 0.00 50 1014.8
20260505235511 20 86 0.0 1.6 0.00 0.00 0.00 50 1014.8
20260505235009 20 86 0.0 1.6 0.00 0.00 0.00 49 1014.9
20260505234513 20 86 0.0 1.6 0.00 0.00 0.00 49 1014.9
20260505234006 20 86 0.0 1.6 0.00 0.00 0.00 48 1014.9
20260505233507 20 86 0.0 0.0 0.00 0.00 0.00 48 1014.9
20260505233021 20 86 0.0 1.6 0.00 0.00 0.00 48 1014.8
20260505232508 20 86 0.0 1.6 0.00 0.00 0.00 48 1014.9
20260505232009 20 86 0.0 0.0 0.00 0.00 0.00 48 1014.8
20260505231529 21 86 0.0 1.6 0.00 0.00 0.00 47 1014.9
20260505231008 21 86 0.0 1.6 0.00 0.00 0.00 48 1015.0
20260505230510 21 86 0.0 1.6 0.00 0.00 0.00 47 1015.0
20260505230040 21 86 0.0 1.6 0.00 0.00 0.00 48 1014.9
20260505225507 21 86 0.0 1.6 0.00 0.00 0.00 46 1014.9
20260505225012 21 86 0.0 1.6 0.00 0.00 0.00 46 1014.8
20260505224528 21 92 0.0 1.6 0.00 0.00 0.00 46 1014.9
20260505224010 21 91 0.0 1.6 0.00 0.00 0.00 46 1015.0
20260505223509 21 91 0.0 1.6 0.00 0.00 0.00 46 1015.0
20260505223017 21 91 0.0 1.6 0.00 0.00 0.00 44 1015.1
20260505222511 21 91 0.0 1.6 0.00 0.00 0.00 46 1015.1
20260505222013 21 91 0.0 1.6 0.00 0.00 0.00 48 1015.2
20260505221523 21 92 0.0 3.2 0.00 0.00 0.00 45 1015.1
20260505221008 21 37 0.0 3.2 0.00 0.00 0.00 46 1015.1
20260505220508 21 50 0.0 3.2 0.00 0.00 0.00 47 1015.2
20260505220024 21 39 0.0 3.2 0.00 0.00 0.00 48 1015.1
20260505215510 21 6 0.0 3.2 0.00 0.00 0.00 43 1014.9
20260505215011 22 30 0.0 3.2 0.00 0.00 0.00 42 1014.6
20260505214528 22 162 0.0 3.2 0.00 0.00 0.00 41 1014.8
20260505214007 22 79 0.0 1.6 0.00 0.00 0.00 40 1014.9
20260505213512 22 37 0.0 4.8 0.00 0.00 0.00 45 1015.1
20260505213030 22 251 0.0 6.4 0.00 0.00 0.00 41 1014.9
20260505212509 22 103 1.6 6.4 0.00 0.00 0.00 42 1014.8
20260505212013 22 252 1.6 6.4 0.00 0.00 0.00 43 1014.9
20260505211531 22 91 0.0 4.8 0.00 0.00 0.00 43 1014.9
20260505211006 22 44 1.6 3.2 0.00 0.00 0.00 42 1015.1
20260505210508 22 109 0.0 4.8 0.00 0.00 0.00 42 1015.0
20260505210020 22 98 1.6 4.8 0.00 0.00 0.00 41 1015.0
20260505203510 22 94 0.0 3.2 0.00 0.00 0.00 45 1015.1
20260505203028 22 89 0.0 6.4 0.00 0.00 0.00 45 1015.3
20260505202509 22 90 1.6 6.4 0.00 0.00 0.00 41 1015.1
20260505201533 22 75 0.0 6.4 0.00 0.00 0.00 42 1015.4
20260505201007 22 113 1.6 6.4 0.00 0.00 0.00 41 1015.3
20260505200508 22 244 1.6 6.4 0.00 0.00 0.00 42 1015.4
20260505200030 22 156 1.6 4.8 0.00 0.00 0.00 43 1015.5
20260505195508 22 57 0.0 6.4 0.00 0.00 0.00 41 1015.5
20260505195010 23 56 0.0 6.4 0.00 0.00 0.00 42 1015.5
20260505194528 23 96 1.6 4.8 0.00 0.00 0.00 40 1015.5
20260505194012 23 252 1.6 4.8 0.00 0.00 0.00 38 1015.6
20260505193514 23 20 0.0 3.2 0.00 0.00 0.00 40 1015.7
20260505192510 23 14 0.0 6.4 0.00 0.00 0.00 44 1015.7
20260505192010 23 28 1.6 9.7 0.00 0.00 0.00 44 1015.7
20260505191514 23 107 3.2 9.7 0.00 0.00 0.00 40 1015.8
20260505191007 24 68 1.6 8.0 0.00 0.00 0.00 45 1016.0
20260505190506 24 99 1.6 8.0 0.00 0.00 0.00 43 1016.1
20260505190015 24 250 1.6 8.0 0.00 0.00 0.00 42 1016.1
20260505185507 24 68 1.6 4.8 0.00 0.00 0.00 44 1016.0
20260505185008 23 82 1.6 4.8 0.00 0.00 0.00 40 1016.0
20260505184526 24 94 1.6 4.8 0.00 0.00 0.00 37 1016.1
20260505184007 24 252 1.6 4.8 0.00 0.00 0.00 41 1016.2
20260505183511 24 276 1.6 6.4 0.00 0.00 0.00 37 1016.1
20260505183024 24 49 1.6 6.4 0.00 0.00 0.00 40 1016.2
20260505182506 24 86 1.6 6.4 0.00 0.00 0.00 37 1016.2
20260505182018 25 110 3.2 9.7 0.00 0.00 0.00 38 1016.5
20260505181527 24 85 1.6 9.7 0.00 0.00 0.00 41 1016.5
20260505181008 24 125 1.6 6.4 0.00 0.00 0.00 39 1016.6
20260505180511 24 68 1.6 6.4 0.00 0.00 0.00 41 1016.5
20260505180026 25 14 1.6 4.8 0.00 0.00 0.00 42 1016.6
20260505175507 25 13 1.6 14.5 0.00 0.00 0.00 41 1016.7
20260505175009 24 32 1.6 14.5 0.00 0.00 0.00 39 1017.0
20260505174532 24 91 3.2 14.5 0.00 0.00 0.00 45 1016.9
20260505174010 23 74 1.6 8.0 0.00 0.00 0.00 45 1017.1
20260505173506 23 278 1.6 8.0 0.00 0.00 0.00 45 1017.1
20260505173022 23 103 3.2 8.0 0.00 0.00 0.00 45 1017.1
20260505172510 23 51 1.6 6.4 0.00 0.00 0.00 48 1017.1
20260505172010 23 104 1.6 6.4 0.00 0.00 0.00 45 1017.2
20260505171532 23 60 1.6 6.4 0.00 0.00 0.00 43 1017.3
20260505171007 23 37 3.2 4.8 0.00 0.00 0.00 44 1017.3
20260505170509 23 75 1.6 4.8 0.00 0.00 0.00 42 1017.4
20260505170028 24 71 1.6 6.4 0.00 0.00 0.00 44 1017.3
20260505165507 24 108 1.6 6.4 0.00 0.00 0.00 41 1017.2
20260505165013 23 193 1.6 4.8 0.00 0.00 0.00 46 1017.2
20260505164528 23 241 1.6 6.4 0.00 0.00 0.00 42 1017.2
20260505164007 23 99 1.6 8.0 0.00 0.00 0.00 45 1017.2
20260505163506 23 34 1.6 8.0 0.00 0.00 0.00 43 1017.2
20260505163021 23 257 3.2 6.4 0.00 0.00 0.00 43 1017.2
20260505162507 23 244 1.6 6.4 0.00 0.00 0.00 41 1017.4
20260505162007 23 124 4.8 8.0 0.00 0.00 0.00 40 1017.3
20260505161524 23 33 3.2 8.0 0.00 0.00 0.00 42 1017.4
20260505161011 23 160 1.6 4.8 0.00 0.00 0.00 40 1017.5
20260505160513 23 54 1.6 4.8 0.00 0.00 0.00 38 1017.4
20260505153036 22 141 1.6 4.8 0.00 0.00 0.00 44 1017.5
20260505152507 22 223 1.6 4.8 0.00 0.00 0.00 46 1017.4
20260505152011 22 108 1.6 3.2 0.00 0.00 0.00 47 1017.5
20260505151522 22 44 1.6 3.2 0.00 0.00 0.00 51 1017.6
20260505151007 22 63 0.0 6.4 0.00 0.00 0.00 48 1017.7
20260505150509 21 116 1.6 6.4 0.00 0.00 0.00 52 1017.7
20260505140504 18 37 1.6 3.2 0.00 0.00 0.00 57 1017.5
20260505125007 16 83 0.0 1.6 0.00 0.00 0.00 58 1016.6
20260505124508 16 90 0.0 1.6 0.00 0.00 0.00 59 1016.6
20260505124007 16 91 0.0 1.6 0.00 0.00 0.00 57 1016.5
20260505123503 16 90 0.0 1.6 0.00 0.00 0.00 59 1016.5
20260505123007 16 91 0.0 1.6 0.00 0.00 0.00 59 1016.5
20260505122505 16 91 0.0 1.6 0.00 0.00 0.00 59 1016.6
20260505122008 16 90 0.0 3.2 0.00 0.00 0.00 58 1016.5
20260505121508 16 90 0.0 3.2 0.00 0.00 0.00 57 1016.3
20260505121006 17 86 0.0 1.6 0.00 0.00 0.00 59 1016.3
20260505120508 17 41 0.0 1.6 0.00 0.00 0.00 58 1016.4
20260505120008 17 41 0.0 1.6 0.00 0.00 0.00 53 1016.4
20260505115505 16 41 0.0 1.6 0.00 0.00 0.00 54 1016.5
20260505115006 16 355 0.0 1.6 0.00 0.00 0.00 56 1016.4
20260505114512 15 355 0.0 1.6 0.00 0.00 0.00 59 1016.3
20260505114005 15 355 0.0 1.6 0.00 0.00 0.00 61 1016.2
20260505113505 14 355 0.0 1.6 0.00 0.00 0.00 59 1016.0
20260505113011 14 249 0.0 1.6 0.00 0.00 0.00 58 1015.9
20260505112510 14 248 0.0 0.0 0.00 0.00 0.00 59 1015.9
20260505112003 13 248 0.0 1.6 0.00 0.00 0.00 60 1015.8
20260505111508 13 248 0.0 1.6 0.00 0.00 0.00 59 1015.7
20260505111006 13 248 0.0 1.6 0.00 0.00 0.00 59 1015.7
20260505110508 13 248 0.0 1.6 0.00 0.00 0.00 59 1015.8
20260505102007 13 252 0.0 1.6 0.00 0.00 0.00 60 1015.5
20260505101510 13 96 0.0 1.6 0.00 0.00 0.00 59 1015.6
20260505101006 13 94 0.0 1.6 0.00 0.00 0.00 57 1015.7
20260505100506 13 56 0.0 1.6 0.00 0.00 0.00 57 1015.9
20260505100011 13 56 0.0 1.6 0.00 0.00 0.00 58 1015.9
20260505095510 13 56 0.0 1.6 0.00 0.00 0.00 56 1016.0
20260505095011 13 56 0.0 1.6 0.00 0.00 0.00 56 1015.7
20260505094511 13 66 0.0 1.6 0.00 0.00 0.00 56 1015.8
20260505094006 13 66 0.0 1.6 0.00 0.00 0.00 56 1015.9
20260505093506 13 65 0.0 1.6 0.00 0.00 0.00 57 1015.8
20260505093013 13 233 0.0 1.6 0.00 0.00 0.00 56 1015.8
20260505092507 13 233 0.0 3.2 0.00 0.00 0.00 56 1015.9
20260505092007 14 36 0.0 3.2 0.00 0.00 0.00 56 1015.9
20260505091515 14 247 0.0 1.6 0.00 0.00 0.00 55 1015.9
20260505091007 14 248 0.0 1.6 0.00 0.00 0.00 55 1015.9
20260505090507 14 139 0.0 1.6 0.00 0.00 0.00 55 1015.9
20260505090012 14 140 0.0 1.6 0.00 0.00 0.00 55 1016.0
20260505085508 14 256 0.0 1.6 0.00 0.00 0.00 55 1016.0
20260505085006 14 311 0.0 1.6 0.00 0.00 0.00 55 1016.0
20260505084510 14 308 0.0 1.6 0.00 0.00 0.00 55 1016.0
20260505084005 14 338 0.0 1.6 0.00 0.00 0.00 55 1016.1
20260505083507 14 353 0.0 1.6 0.00 0.00 0.00 55 1016.1
20260505083014 14 304 1.6 1.6 0.00 0.00 0.00 55 1016.1
20260505082507 14 302 0.0 1.6 0.00 0.00 0.00 55 1016.1
20260505082010 14 327 0.0 3.2 0.00 0.00 0.00 56 1016.1
20260505081521 14 327 0.0 3.2 0.00 0.00 0.00 56 1016.0
20260505081008 14 314 0.0 1.6 0.00 0.00 0.00 57 1016.0
20260505080512 13 321 0.0 1.6 0.00 0.00 0.00 57 1016.1
20260505080006 13 307 0.0 1.6 0.00 0.00 0.00 58 1016.0
20260505075502 13 250 0.0 1.6 0.00 0.00 0.00 58 1015.9
20260505075003 13 250 0.0 1.6 0.00 0.00 0.00 58 1016.0
20260505074505 13 250 0.0 1.6 0.00 0.00 0.00 58 1016.0
20260505074004 13 250 0.0 1.6 0.00 0.00 0.00 58 1016.1
20260505073507 13 250 0.0 1.6 0.00 0.00 0.00 57 1016.1
20260505073012 14 250 0.0 1.6 0.00 0.00 0.00 58 1016.1
20260505072507 14 250 0.0 1.6 0.00 0.00 0.00 57 1016.1
20260505072007 14 250 0.0 1.6 0.00 0.00 0.00 57 1016.1
20260505071517 14 252 0.0 1.6 0.00 0.00 0.00 57 1016.1
20260505071007 14 252 0.0 1.6 0.00 0.00 0.00 57 1016.1
20260505070510 14 253 0.0 1.6 0.00 0.00 0.00 56 1016.0
20260505070016 14 253 0.0 0.0 0.00 0.00 0.00 55 1016.0
20260505065507 15 253 0.0 1.6 0.00 0.00 0.00 55 1016.1
20260505065008 15 253 0.0 1.6 0.00 0.00 0.00 54 1016.1
20260505064504 15 253 0.0 1.6 0.00 0.00 0.00 54 1016.1
20260505064007 15 253 0.0 1.6 0.00 0.00 0.00 54 1016.1
20260505063504 15 253 0.0 1.6 0.00 0.00 0.00 54 1016.1
20260505063008 15 253 0.0 1.6 0.00 0.00 0.00 54 1016.1
20260505062507 15 253 0.0 0.0 0.00 0.00 0.00 54 1016.2
20260505062008 15 253 0.0 1.6 0.00 0.00 0.00 55 1016.2
20260505061509 15 253 0.0 1.6 0.00 0.00 0.00 56 1016.2
20260505061007 15 253 0.0 1.6 0.00 0.00 0.00 54 1016.2
20260505060510 15 253 0.0 1.6 0.00 0.00 0.00 54 1016.3
20260505060018 15 253 0.0 1.6 0.00 0.00 0.00 54 1016.3
20260505055509 15 288 0.0 1.6 0.00 0.00 0.00 54 1016.4
20260505055010 15 310 0.0 1.6 0.00 0.00 0.00 53 1016.5
20260505054528 15 288 0.0 1.6 0.00 0.00 0.00 53 1016.5
20260505054008 15 288 0.0 3.2 0.00 0.00 0.00 54 1016.5
20260505053513 15 245 0.0 3.2 0.00 0.00 0.00 55 1016.5
20260505053005 15 253 0.0 1.6 0.00 0.00 0.00 53 1016.5
20260505052504 15 314 0.0 1.6 0.00 0.00 0.00 54 1016.5
20260505052004 15 314 0.0 1.6 0.00 0.00 0.00 52 1016.5
20260505051511 15 328 0.0 1.6 0.00 0.00 0.00 52 1016.5
20260505051009 15 316 0.0 1.6 0.00 0.00 0.00 52 1016.5
20260505050508 15 310 0.0 1.6 0.00 0.00 0.00 52 1016.5
20260505041508 16 338 0.0 1.6 0.00 0.00 0.00 50 1016.3
20260505041005 16 326 0.0 1.6 0.00 0.00 0.00 50 1016.3
20260505040505 16 314 0.0 1.6 0.00 0.00 0.00 50 1016.3
20260505040011 16 314 0.0 1.6 0.00 0.00 0.00 50 1016.3
20260505035505 16 314 0.0 1.6 0.00 0.00 0.00 50 1016.5
20260505035006 16 6 0.0 1.6 0.00 0.00 0.00 50 1016.5
20260505034525 16 4 0.0 1.6 0.00 0.00 0.00 50 1016.5
20260505034009 16 263 0.0 1.6 0.00 0.00 0.00 50 1016.4
20260505033506 16 283 0.0 1.6 0.00 0.00 0.00 51 1016.5
20260505033022 16 250 0.0 1.6 0.00 0.00 0.00 51 1016.4
20260505032507 16 250 0.0 1.6 0.00 0.00 0.00 52 1016.5
20260505032008 16 305 0.0 0.0 0.00 0.00 0.00 50 1016.5
20260505031524 16 305 0.0 1.6 0.00 0.00 0.00 49 1016.4
20260505031008 16 274 0.0 1.6 0.00 0.00 0.00 48 1016.4
20260505030509 16 255 0.0 1.6 0.00 0.00 0.00 49 1016.4
20260505030037 16 5 0.0 3.2 0.00 0.00 0.00 49 1016.5
20260505025508 17 29 1.6 3.2 0.00 0.00 0.00 49 1016.4
20260505025006 17 293 1.6 1.6 0.00 0.00 0.00 50 1016.5
20260505024524 16 5 0.0 1.6 0.00 0.00 0.00 50 1016.4
20260505024006 16 299 0.0 1.6 0.00 0.00 0.00 51 1016.5
20260505023506 17 338 0.0 1.6 0.00 0.00 0.00 51 1016.5
20260505023018 17 353 0.0 1.6 0.00 0.00 0.00 51 1016.4
20260505022508 17 23 0.0 1.6 0.00 0.00 0.00 52 1016.3
20260505022010 17 20 0.0 1.6 0.00 0.00 0.00 52 1016.3
20260505021524 17 20 0.0 1.6 0.00 0.00 0.00 52 1016.3
20260505021006 17 326 0.0 1.6 0.00 0.00 0.00 52 1016.3
20260505020509 17 326 0.0 1.6 0.00 0.00 0.00 52 1016.3
20260505020023 17 326 0.0 1.6 0.00 0.00 0.00 52 1016.2
20260505015510 17 321 0.0 1.6 0.00 0.00 0.00 52 1016.2
20260505015007 17 321 0.0 1.6 0.00 0.00 0.00 52 1016.1
20260505014524 17 319 0.0 1.6 0.00 0.00 0.00 52 1016.1